Location: Moscow
(55.7500°N, 37.5830°E)
Time: 18:15:29
(UTC+03:00)

Transit 2A - Pass Details

Date: 30 November 2021
Orbit: 591 x 967 km, 66.7° (Epoch: 21 January)

Event Time Altitude Azimuth Distance (km) Brightness Sun altitude
Rises 09:11:38 0° 315° (NW) 3,631 8.8 3.1°
Reaches altitude 10° 09:14:11 10° 316° (NW) 2,703 8.2 3.3°
Maximum altitude 09:20:36 87° 46° (NE) 975 6.7 3.9°
Drops below altitude 10° 09:26:56 10° 137° (SE) 2,661 11.6 4.5°
Sets 09:29:25 0° 138° (SE) 3,572 12.4 4.7°
